www.pogodaiklimat.ru

Погода и климат >> Архив погоды >> Антарктида >> Marambio Base


ПОГОДА в Marambio Base

  • Прогноз погоды в Marambio Base
  • Монитор погоды в Marambio Base
  • Климат города

АРХИВ ПОГОДЫ в Marambio Base

Время (UTC), дата Ветер
(напр.,м/с)
 
Видим.   Явления Облачность Т
(С)
Тd
(С)
f
(%)
Тe
(С)
Тes
(С)
Комфортность P
(гПа)
Po
(гПа)
Тmin
(С)
Tmax
(С)
R
(мм)
R24
(мм)
S
(см)
15 8.12 З 3 15 км 9/0
[Ac As]
0.0 -3.5 77 -4 0 988.5 964.2
18 8.12 С 6 15 км 8/8 600 м
[Sc]
-0.4 -3.4 80 -7 -6 988.5 964.2
21 8.12 СВ 5 15 км 9/6 750 м
[Sc Ac As]
-1.0 -4.2 79 -7 -7 988.1 963.8
03 9.12 С 6 600 м туман местами 10/10 210 м
[St]
-1.8 -2.0 99 -9 -9 986.3 962.1
06 9.12 С 9 5000 м дымка {туман} 9/4 120 м
[St Ac As]
-2.3 -2.9 96 -11 -11 985.0 960.8
09 9.12 С 9 100 м туман 10/10 120 м
[St]
-2.6 -2.9 98 -12 -12 985.0 960.8
12 9.12 СЗ 5 100 м слабый снег {туман} 10/10 150 м
[St]
-1.9 -2.1 99 -9 -9 984.3 960.1 -2.8 -1.1
15 9.12 С 7 <100 м слабый снег 10/10 90 м
[St]
-1.9 -2.1 99 -10 -10 982.7 958.5
18 9.12 С 6 100 м слабый снег 10/10 90 м
[St]
+0.1 -0.2 98 -7 -7 982.0 957.8
21 9.12 Ю 5 8000 м в посл. час снег {туман} 10/10 240 м
[St]
-0.6 -0.7 99 -7 -7 983.9 959.7
00 10.12 Ю 4 8000 м дымка {снег, туман} 10/10 420 м
[St]
-2.0 -2.3 98 -8 -8 985.0 960.8 -2.2 +0.2
03 10.12 Ю 5 8000 м дымка 10/10 420 м
[St]
-2.5 -2.8 98 -10 -10 985.7 961.4
06 10.12 ЮЗ 4 15 км 10/10 450 м
[St]
-2.6 -3.6 93 -8 -8 986.4 962.2
09 10.12 Ю 3 15 км 9/6 450 м
[Sc Ac As]
-1.8 -3.9 86 -6 -6 987.2 963.0
12 10.12 С 2 15 км 10/4 360 м
[St Ac As]
-0.9 -3.7 81 -4 -3 987.6 963.4 -3.5 -0.7
15 10.12 С 6 15 км 10/1 450 м
[St Ac As]
0.0 -0.5 96 -7 -5 986.6 962.4
18 10.12 С 9 15 км 10/5 90 м
[St Ac As]
+0.1 -2.5 83 -8 -7 984.8 960.6
21 10.12 С 8 300 м туман 10/10 60 м
[St]
+0.5 +0.3 99 -7 -7 982.8 958.6
00 11.12 С 9 300 м туман 10/10 60 м
[St]
-0.9 -1.0 99 -9 -9 980.5 956.5 -1.2 +1.4
03 11.12 С 9 <100 м переохл. туман 10/10 60 м
[St]
-1.9 -2.1 99 -11 -11 977.9 953.8
06 11.12 С 7 <100 м переохл. туман ?/? -2.2 -2.5 98 -10 -10 976.8 952.9
09 11.12 СВ 1 <100 м туман ?/? -1.9 -2.1 99 -3 -3 977.0 953.0
12 11.12 В 4 <100 м снег {туман} 10/10 60 м
[St]
-2.0 -2.3 98 -8 -8 976.9 952.9 -2.6 -0.7
15 11.12 Ю 8 <100 м снег {туман} 10/10 60 м
[St]
-1.6 -1.8 99 -10 -10 977.1 953.0
18 11.12 Ю 11 600 м снег {туман} 10/8 120 м
[St Ac As]
-1.0 -1.1 99 -10 -10 977.0 953.0
21 11.12 Ю 10 900 м слабый снег {туман} 10/4 150 м
[St As op]
-1.8 -3.2 90 -11 -11 977.2 953.2
00 12.12 Ю 10 10 км слабый снег {туман} 10/1 150 м
[St Ac As]
-2.1 -3.0 94 -11 -11 977.3 953.3 -2.6 -0.7
03 12.12 Ю 11 5000 м слабый снег 10/3 150 м
[St As op]
-2.7 -3.4 95 -12 -12 977.3 953.3
06 12.12 Ю 12 15 км {снег, метель} 8/4 150 м
[St Ac As Ci fib]
-3.1 -3.5 97 -13 -13 977.8 953.7
09 12.12 Ю 12 8000 м позёмок {снег, метель} 8/5 120 м
[St Ac As Ci fib]
-2.8 -3.2 97 -13 -13 978.3 954.2
12 12.12 Ю 12 4000 м слабый снег {морось} 10/10 120 м
[St]
-2.1 -3.0 94 -12 -12 978.7 954.6 -3.2 -2.0
15 12.12 ЮЗ 15 15 км {снег} 9/4 150 м
[St Cs]
-0.8 -2.1 91 -11 -11 979.2 955.0
18 12.12 ЮЗ 15 15 км {снег} 8/1 150 м
[St Cs]
-0.8 -2.1 91 -11 -11 979.9 955.8
21 12.12 ЮЗ 14 15 км 8/4 300 м
[St Cs]
-0.8 -2.1 91 -11 -11 980.7 956.6
00 13.12 ЮЗ 13 15 км 8/0
[Ac As Cs]
-1.2 -3.1 87 -11 -11 980.5 956.4 -2.2 +0.2
03 13.12 ЮЗ 10 15 км 8/0
[Ac As Cs]
-1.6 -4.3 82 -10 -10 980.1 956.1
06 13.12 Ю 13 15 км 8/3 300 м
[St Ac As]
-2.7 -3.4 95 -13 -13 979.7 955.6
09 13.12 ЮЗ 14 15 км осадки на расстоянии 8/3 450 м
[Sc Ac As]
-2.1 -3.3 91 -12 -12 979.4 955.4
12 13.12 ЮЗ 13 15 км осадки на расстоянии 9/5 90 м
[St Ac As]
-1.3 -1.8 96 -11 -11 979.4 955.4 -3.1 -1.0
15 13.12 ЮЗ 14 10 км осадки на расстоянии 8/8 240 м
[St Ac As]
+1.0 -1.0 86 -8 -8 978.8 954.9
18 13.12 ЮЗ 13 10 км осадки на расстоянии 5/5 240 м
[St Ac As]
+0.2 -0.9 92 -9 -9 979.2 955.2
21 13.12 ЮЗ 14 15 км {снег} 8/8 240 м
[St]
-0.6 -2.4 88 -10 -10 979.0 955.0
00 14.12 Ю 9 8000 м слабый снег 10/10 120 м
[St]
-1.4 -1.6 99 -10 -10 979.4 955.4 -1.6 +1.0
03 14.12 Ю 8 15 км {снег} 9/4 300 м
[St Ac As]
-2.6 -2.9 98 -11 -11 979.5 955.4
06 14.12 Ю 10 15 км {снег} 9/5 210 м
[St Ac As]
-2.6 -3.6 93 -12 -12 979.1 955.0
09 14.12 Ю 8 7000 м слабый снег {туман} 9/8 60 м
[St As op]
-2.8 -3.2 97 -11 -11 978.9 954.9
12 14.12 Ю 8 15 км {снег, туман} 9/5 90 м
[St Ac As]
-2.1 -2.7 96 -10 -10 978.4 954.4 -3.0 -1.4
15 14.12 Ю 10 15 км 10/5 90 м
[St Ac As]
-1.7 -3.7 86 -10 -10 977.3 953.3
18 14.12 Ю 11 15 км 10/6 210 м
[St Ac As]
-2.8 -3.5 95 -12 -12 976.8 952.6
21 14.12 Ю 13 15 км 10/6 240 м
[St Ac As]
-3.9 -5.1 91 -14 -14 976.2 952.1
00 15.12 Ю 14 15 км 10/10 240 м
[St]
-5.0 -6.7 88 -16 -16 976.4 952.2 -5.1 +1.1
03 15.12 Ю 14 400 м снег {метель} 10/10 150 м
[St]
-5.9 -6.6 95 -17 -17 975.7 951.4
06 15.12 Ю 17 100 м снег {метель} 10/10 180 м
[St]
-6.5 -7.3 94 -19 -19 974.6 950.4
09 15.12 ЮЗ 19 200 м слабый снег {метель} 10/10 180 м
[St]
-6.0 -6.8 94 -19 -19 974.4 950.2
12 15.12 ЮЗ 16 300 м слабый снег {метель} 10/10 120 м
[St]
-5.2 -5.9 95 -17 -17 974.6 950.4 -6.6 -4.8

 

Местоположение метеостанции Marambio Base (Антарктида): широта -64.23 долгота -56.71 высота над уровнем моря 198 м.

В архиве по умолчанию представлена погода в Marambio Base за последнюю неделю. Архивные данные за месяц целиком и за предыдущие месяцы, начиная с января 2011 года, Вы можете получить, выбрав интересующий диапазон дат из раскрывающегося списка и нажав кнопку "Ввод!".

Внимание! Время в таблицах - всемирное. Для получения местного времени необходимо прибавить поправку, которая в Marambio Base равна 0 ч.

Смотрите также архив погоды в соседних городах и на ближайших метеорологических станциях:

Погода в Esperanza Base (Антарктида) (93 км)
Погода в Bernardo o`Higgins (Антарктида) (118 км)
Погода в Carlini Base (Антарктида) (242 км)
Погода в Captain Arturo Prat Base (Антарктида) (243 км)
Погода в King Sejong (Антарктида) (247 км)
Погода в Great Wall (Антарктида) (251 км)
Погода в Dinamet-Uruguay (Антарктида) (252 км)
Погода в Bellingshausen (Антарктида) (252 км)
Погода в Juan Carlos Island (Антарктида) (253 км)
Погода в Frei Chi-Base (Антарктида) (255 км)

Пояснения к столбцам:

Ветер - указаны скорость ветра в м/с - средняя за 10 мин, порывы в срок и между сроками (в фигурных скобках) и направление, откуда дует ветер: С - северный, СВ - северо-восточный, В - восточный, ЮВ - юго-восточный, Ю - южный, ЮЗ - юго-западный, З - западный, СЗ - северо-западный.
Видимость - горизонтальная дальность видимости в метрах или километрах. При видимости от 1 до 10 км при отсутствии осадков обычно наблюдается дымка, при ухудшении видимости до 1 км и менее - туман. В сухую погоду видимость может ухудшаться дымом, пылью или мглою.
Явления - указаны атмосферные явления, наблюдавшиеся в срок или в последний час перед сроком; фигурными скобками обозначены явления, наблюдавшиеся между сроками (за 1-3 часа до срока); квадратными скобками обозначены град или гололедные отложения с указанием их диаметра в мм.
Облачность - указаны через наклонную черту общая и нижняя облачность в баллах и высота нижней границы облаков в метрах; квадратными скобками обозначены формы облаков: Ci - перистые, Cs - перисто-слоистые, Cc - перисто-кучевые, Ac - высококучевые, As - высокослоистые, Sc - слоисто-кучевые, Ns - слоисто-дождевые, Cu - кучевые, Cb - кучево-дождевые. Подробнее классификацию облаков см. в Атласе облаков (PDF).
T - Температура воздуха - температура, измеренная на высоте 2 м над землей.
Td - Температура точки росы - температура, при понижении до которой содержащийся в воздухе водяной пар достигнет насыщения.
f - Относительная влажность воздуха - влажноcть воздуха, измеренная на высоте 2 м над землей.
Te - Эффективная температура - температура, которую ощущает одетый по сезону человек в тени. Характеристика душности погоды. При расчете учитывается влияние влажности воздуха и скорости ветра на теплоощущения человека.
Tes - Эффективная температура на солнце - температура, которую ощущает человек, с поправкой на солнечный нагрев. Характеристика знойности погоды. Зависит от высоты солнца над горизонтом, облачности и скорости ветра. Ночью, в пасмурную погоду, а также при ветре 12 м/с и более поправка равна нулю.
P - Атмосферное давление - приведенное к уровню моря атмосферное давление.
Po - Атмосферное давление - измеренное на уровне метеостанции атмосферное давление.
Tmin - Минимальная температура - минимум температуры воздуха на высоте 2 м над землей.
Tmax - Максимальная температура - максимум температуры воздуха на высоте 2 м над землей.
R - Количество осадков - Количество выпавших осадков за период времени, мм. При наведении курсора мыши на число - период времени, за который выпало указанное количество осадков.
R24 - Количество осадков - Количество выпавших осадков за 24 часа, мм.
S - Снежный покров - Высота снежного покрова, см. При наведении курсора мыши на число - состояние снежного покрова и степень покрытия местности в баллах.